Weather in Shcheglovo

Russia / Novosibirsk Oblast     55°20′59″N   76°33′51″E
temp.,
°C
wind,
m/s
gust,
m/s
humid.,
%
clouds,
%
prec.,
mm/h
press.,
hPa
HPBL,
m
5 march, fri
fri501:00−2ssw81496100 1.3 1004828
04:00−4s81591100 0.6 1001599
07:00−3ssw71496100 1.0 1002603
10:00−5wsw91587100 1.1 1005768
13:00−6wsw8148479 1.1 1009730
16:00−5sw9159298 0.2 1010926
19:00−5sw9159299 0.7 10111003
22:00−5sw81594100 0.6 1010786
6 march, sat
sat601:00−3sw91594100 1.4 1010911
04:00−4sw91594100 0.6 1009824
07:00−4sw91594100 1.6 1008943
10:00−4sw81590100 0.5 1007820
13:00−2sw91494100 0.9 1006836
16:00−1sw91494100 0.6 1005984
19:00−1wsw8148698 1.4 1007801
22:00−7wsw6148790 0.0 1009455
7 march, sun
sun701:00−12wsw4109145 0.0 1012188
04:00−16wsw45930 0.0 101475
07:00−17sw449410 0.0 101662
10:00−15sw379397 0.0 1017144
13:00−10ssw358799 0.0 1018233
16:00−8s4685100 0.0 1016276
19:00−8se51095100 0.6 1013467
22:00−1s81595100 0.9 1010721
8 march, mon
mon801:000ssw91696100 1.4 1007900
04:000ssw91595100 0.1 1006807
07:00−1ssw91596100 0.5 1005638
10:00−2ssw81394100 1.1 1004591
13:00−1ssw81296100 1.4 1004612
16:00−1sw6997100 1.4 1005574
19:00−6nw5895100 2.9 1007446
22:00−8nw6119397 0.4 1011343
9 march, tue
tue901:00−14wnw489663 0.4 1015138
04:00−17w479427 0.0 1018111
07:00−17sw479535 0.0 1021105
10:00−15sw6119133 0.0 1022332
13:00−12ssw5109146 0.0 1022347
16:00−10s61091100 0.0 1021427
19:00−9ssw71490100 0.0 1019515
22:00−10ssw7168986 0.0 1017444